Location: *
(33.3200°N, 8.3381°W)
Time: 13:56:34
(UTC+00:00)

MetOp-A - Pass Details

Date: 09 April 2020
Orbit: 820 x 821 km, 98.5° (Epoch: 04 June)

Event Time Altitude Azimuth Distance (km) Brightness Sun altitude
Exits shadow 20:54:51 45° 166° (SSE) 1,103 4.5 -23.5°
Maximum altitude 20:56:34 90° 97° (E) 825 4.0 -23.8°
Drops below altitude 10° 21:01:57 10° 347° (NNW) 2,421 7.1 -24.8°
Sets 21:04:18 0° 348° (NNW) 3,357 7.9 -25.2°
